Terminal Aerodrome Forecast
Issued by NWS Wilmington, OH

Current Version | Previous Version | Text Only | Print | Product List | Glossary Off
Versions: 1 2 3 4 5 6 7 8 9 10 11 12 13 14 15

000
FTUS41 KILN 010400 AAB
TAFCMH
TAF AMD
KCMH 010411Z 0104/0124 36010KT P6SM BKN015
     FM011100 01010KT P6SM FEW050
     FM011500 35011KT P6SM SCT050
     FM012200 35006KT P6SM FEW060=

USA.gov is the U.S. government's official web portal to all federal, state and local government web resources and services.